Location: Bakhuizen
(52.8696°N, 5.4575°E)
Time: 19:05:03
(UTC+00:00)

Cosmos 1610 Rocket - Pass Details

Date: 11 May 2021
Orbit: 952 x 1003 km, 82.9° (Epoch: 21 June)

Event Time Altitude Azimuth Distance (km) Brightness Sun altitude
Rises 21:30:53 0° 349° (NNW) 3,654 9.0 -14.1°
Reaches altitude 10° 21:33:24 10° 349° (NNW) 2,699 8.0 -14.3°
Maximum altitude 21:39:34 85° 262° (W) 964 4.5 -14.8°
Enters shadow 21:44:04 19° 175° (S) 2,077 5.7 -15.1°
